Manchester, NH

8:04 AM EST on December 06, 2019 (GMT -0500)
Manchester

Weather History for KMHT - October, 2019

Change the Weather History Date:

Thursday, October 24, 2019

  Actual Average Record
Temperature  
Mean Temperature 54 °F 48 °F  
Max Temperature 68 °F 58 °F 76 °F (2017)
Min Temperature 39 °F 38 °F 21 °F (1969)
Degree Days  
Heating Degree Days 11 17  
Month to date heating degree days 258 319  
Since 1 July heating degree days 337 462  
Cooling Degree Days 0 0  
Month to date cooling degree days 2 0  
Year to date cooling degree days 844 638  
Growing Degree Days 4 (Base 50)    
Moisture  
Dew Point 36 °F    
Average Humidity 56    
Maximum Humidity 85    
Minimum Humidity 27    
Precipitation  
Precipitation 0.00 in 0.13 in 2.01 in (1970)
Month to date precipitation 2.09 3.30  
Year to date precipitation 25.65 36.37  
Snow  
Snow 0.00 in - - ()
Month to date snowfall 0.0  
Since 1 July snowfall 0.0  
Snow Depth 0.00 in    
Sea Level Pressure  
Sea Level Pressure 30.23 in    
Wind  
Wind Speed 5 mph (SSW)    
Max Wind Speed 17 mph    
Max Gust Speed 24 mph    
Visibility 10 miles    
Events      
T = Trace of Precipitation, MM = Missing Value Source: NWS Daily Summary

Daily Weather History Graph

Daily Weather History Graph

Search for Another Location

Airport or City:

Astronomy

Oct. 24, 2019 Rise Set
Actual Time 7:09 AM EDT 5:49 PM EDT
Civil Twilight 6:40 AM EDT 6:18 PM EDT
Nautical Twilight 6:07 AM EDT 6:51 PM EDT
Astronomical Twilight 5:34 AM EDT 7:24 PM EDT
Moon 2:26 AM EDT (10/24) 4:23 PM EDT (10/24)
Length of Visible Light 11h 37m
Length of Day
10h 39m
Waning Crescent, 17% of the Moon is Illuminated
Oct 24
Waning Crescent
Oct 27
New
Nov 4
First Quarter
Nov 12
Full
Nov 19
Last Quarter

Hourly Weather History & Observations

Time (EDT) Temp. Windchill Dew Point Humidity Pressure Visibility Wind Dir Wind Speed Gust Speed Precip Events Conditions
12:53 AM 46.0 °F 44.8 °F 37.0 °F 71% 30.14 in 10.0 mi South 3.5 mph - N/A   Clear
1:53 AM 45.0 °F - 37.0 °F 74% 30.16 in 10.0 mi Calm Calm - N/A   Clear
2:53 AM 42.1 °F 40.2 °F 37.9 °F 85% 30.17 in 10.0 mi SE 3.5 mph - N/A   Clear
3:53 AM 42.1 °F - 36.0 °F 79% 30.19 in 10.0 mi Calm Calm - N/A   Clear
4:53 AM 42.1 °F 40.2 °F 36.0 °F 79% 30.23 in 10.0 mi South 3.5 mph - N/A   Clear
5:53 AM 42.1 °F 40.2 °F 35.1 °F 76% 30.25 in 10.0 mi South 3.5 mph - N/A   Clear
6:53 AM 39.9 °F - 35.1 °F 83% 30.26 in 10.0 mi Calm Calm - N/A   Clear
7:53 AM 39.9 °F - 36.0 °F 86% 30.28 in 10.0 mi Calm Calm - N/A   Clear
8:53 AM 46.0 °F 43.9 °F 36.0 °F 68% 30.29 in 10.0 mi SSW 4.6 mph - N/A   Clear
9:53 AM 50.0 °F - 37.9 °F 63% 30.30 in 10.0 mi SSW 5.8 mph - N/A   Clear
10:53 AM 55.9 °F - 37.0 °F 49% 30.30 in 10.0 mi South 8.1 mph - N/A   Clear
11:53 AM 61.0 °F - 36.0 °F 39% 30.27 in 10.0 mi SSW 9.2 mph - N/A   Clear
12:53 PM 64.9 °F - 34.0 °F 32% 30.24 in 10.0 mi SSW 10.4 mph 19.6 mph N/A   Clear
1:53 PM 66.0 °F - 34.0 °F 30% 30.22 in 10.0 mi SSW 13.8 mph - N/A   Partly Cloudy
2:53 PM 68.0 °F - 33.1 °F 27% 30.21 in 10.0 mi SSW 13.8 mph 21.9 mph N/A   Partly Cloudy
3:53 PM 68.0 °F - 33.1 °F 27% 30.20 in 10.0 mi SSW 10.4 mph 19.6 mph N/A   Partly Cloudy
4:53 PM 66.9 °F - 33.1 °F 28% 30.19 in 10.0 mi SSW 13.8 mph - N/A   Partly Cloudy
5:53 PM 64.9 °F - 34.0 °F 32% 30.20 in 10.0 mi SSW 5.8 mph - N/A   Partly Cloudy
6:53 PM 62.1 °F - 35.1 °F 37% 30.22 in 10.0 mi South 5.8 mph - N/A   Partly Cloudy
7:53 PM 59.0 °F - 36.0 °F 42% 30.23 in 10.0 mi South 10.4 mph - N/A   Partly Cloudy
8:53 PM 57.9 °F - 37.0 °F 46% 30.25 in 10.0 mi SSW 6.9 mph - N/A   Partly Cloudy
9:53 PM 57.0 °F - 36.0 °F 45% 30.25 in 10.0 mi SSW 5.8 mph - N/A   Partly Cloudy
10:53 PM 55.0 °F - 36.0 °F 49% 30.27 in 10.0 mi SSW 6.9 mph - N/A   Mostly Cloudy
11:53 PM 55.0 °F - 37.0 °F 51% 30.29 in 10.0 mi WNW 3.5 mph - N/A   Mostly Cloudy